• In Lithuania
  • List of Countries
  • For 7 days
  • Water Temperature
  • Satellite Maps
  • Weather Map
  • Weather Widgets
  • user-avatar
    Login

    Hourly Weather Neuquén

    Today, 23 May, Wednesday

    Time Temperature Precipitation Wind Pressure Humidity
    00:00 +9°C° 0 mm 2 mps 737 mmHg 35%
    01:00 +9°C° 0 mm 2 mps 736 mmHg 37%
    02:00 +9°C° 0 mm 2 mps 736 mmHg 37%
    03:00 +9°C° 0 mm 2 mps 736 mmHg 37%
    04:00 +9°C° 0 mm 2 mps 736 mmHg 37%
    05:00 +10°C° 0 mm 1 mps 737 mmHg 37%
    06:00 +10°C° 0 mm 1 mps 737 mmHg 37%
    07:00 +10°C° 0 mm 3 mps 737 mmHg 36%
    08:00 +11°C° 0 mm 3 mps 737 mmHg 32%
    09:00 +13°C° 0 mm 3 mps 738 mmHg 29%
    10:00 +16°C° 0 mm 3 mps 738 mmHg 25%
    11:00 +17°C° 0 mm 2 mps 738 mmHg 25%
    12:00 +18°C° 0 mm 2 mps 738 mmHg 24%
    13:00 +20°C° 0 mm 1 mps 738 mmHg 23%
    14:00 +19°C° 0 mm 1 mps 738 mmHg 26%
    15:00 +19°C° 0 mm 1 mps 737 mmHg 29%
    16:00 +16°C° 0 mm 0 mps 737 mmHg 32%
    17:00 +16°C° 0 mm 1 mps 737 mmHg 33%
    18:00 +15°C° 0 mm 1 mps 737 mmHg 34%
    19:00 +14°C° 0 mm 1 mps 738 mmHg 35%
    20:00 +14°C° 0 mm 1 mps 738 mmHg 35%
    21:00 +14°C° 0 mm 2 mps 738 mmHg 34%
    22:00 +14°C° 0 mm 2 mps 738 mmHg 34%
    23:00 +13°C° 0 mm 2 mps 738 mmHg 35%

    Tomorrow, 24 May, Thursday

    Time Temperature Precipitation Wind Pressure Humidity
    00:00 +13°C° 0 mm 2 mps 737 mmHg 36%
    01:00 +12°C° 0 mm 2 mps 737 mmHg 37%
    02:00 +12°C° 0 mm 2 mps 737 mmHg 37%
    03:00 +12°C° 0 mm 2 mps 737 mmHg 38%
    04:00 +10°C° 0 mm 2 mps 736 mmHg 38%
    05:00 +10°C° 0 mm 2 mps 736 mmHg 39%
    06:00 +10°C° 0 mm 2 mps 736 mmHg 40%
    07:00 +10°C° 0 mm 2 mps 736 mmHg 41%
    08:00 +13°C° 0 mm 2 mps 736 mmHg 38%
    09:00 +15°C° 0 mm 2 mps 737 mmHg 35%
    10:00 +17°C° 0 mm 2 mps 737 mmHg 32%
    11:00 +17°C° 0 mm 2 mps 736 mmHg 30%
    12:00 +18°C° 0 mm 2 mps 736 mmHg 28%
    13:00 +19°C° 0 mm 2 mps 735 mmHg 26%
    14:00 +19°C° 0 mm 2 mps 735 mmHg 28%
    15:00 +19°C° 0 mm 1 mps 735 mmHg 30%
    16:00 +18°C° 0 mm 1 mps 735 mmHg 31%
    17:00 +16°C° 0 mm 1 mps 735 mmHg 32%
    18:00 +16°C° 0 mm 1 mps 735 mmHg 33%
    19:00 +15°C° 0 mm 1 mps 735 mmHg 34%
    20:00 +14°C° 0 mm 1 mps 735 mmHg 34%
    21:00 +14°C° 0 mm 1 mps 735 mmHg 34%
    22:00 +14°C° 0 mm 1 mps 735 mmHg 34%
    23:00 +13°C° 0 mm 1 mps 735 mmHg 33%

    Day after tomorrow, 25 May, Friday

    Time Temperature Precipitation Wind Pressure Humidity
    00:00 +13°C° 0 mm 1 mps 735 mmHg 33%
    01:00 +13°C° 0 mm 1 mps 734 mmHg 33%
    02:00 +12°C° 0 mm 1 mps 734 mmHg 33%
    03:00 +12°C° 0 mm 1 mps 734 mmHg 34%
    04:00 +12°C° 0 mm 1 mps 734 mmHg 35%
    05:00 +12°C° 0 mm 1 mps 734 mmHg 34%
    06:00 +12°C° 0 mm 1 mps 733 mmHg 33%
    07:00 +12°C° 0 mm 2 mps 733 mmHg 33%
    08:00 +14°C° 0 mm 2 mps 733 mmHg 31%
    09:00 +16°C° 0 mm 3 mps 733 mmHg 30%
    10:00 +18°C° 0 mm 3 mps 733 mmHg 28%
    11:00 +19°C° 0 mm 3 mps 732 mmHg 29%
    12:00 +21°C° 0 mm 4 mps 732 mmHg 29%
    13:00 +22°C° 0 mm 4 mps 731 mmHg 30%
    14:00 +21°C° 0 mm 4 mps 730 mmHg 33%
    15:00 +20°C° 0 mm 4 mps 729 mmHg 35%
    16:00 +20°C° 0 mm 3 mps 729 mmHg 38%
    17:00 +19°C° 0 mm 4 mps 729 mmHg 40%
    18:00 +18°C° 0 mm 4 mps 728 mmHg 42%
    19:00 +17°C° 0 mm 4 mps 728 mmHg 44%
    20:00 +17°C° 0 mm 4 mps 728 mmHg 45%
    21:00 +15°C° 0 mm 5 mps 729 mmHg 45%
    22:00 +15°C° 0 mm 5 mps 729 mmHg 46%
    23:00 +15°C° 0 mm 4 mps 728 mmHg 43%

    26 May, Saturday

    Time Temperature Precipitation Wind Pressure Humidity
    00:00 +14°C° 0 mm 4 mps 728 mmHg 39%
    01:00 +14°C° 0 mm 3 mps 728 mmHg 36%
    02:00 +14°C° 0 mm 3 mps 728 mmHg 34%
    03:00 +14°C° 0 mm 4 mps 728 mmHg 33%
    04:00 +14°C° 0 mm 4 mps 728 mmHg 32%
    05:00 +14°C° 0 mm 4 mps 729 mmHg 32%
    06:00 +14°C° 0 mm 5 mps 729 mmHg 33%
    07:00 +14°C° 0 mm 6 mps 730 mmHg 33%
    08:00 +15°C° 0 mm 8 mps 731 mmHg 32%
    09:00 +16°C° 0 mm 10 mps 731 mmHg 32%
    10:00 +17°C° 0 mm 11 mps 732 mmHg 31%
    11:00 +18°C° 0 mm 12 mps 732 mmHg 28%
    12:00 +18°C° 0 mm 12 mps 732 mmHg 25%
    13:00 +19°C° 0 mm 12 mps 732 mmHg 22%
    14:00 +18°C° 0 mm 11 mps 732 mmHg 23%
    15:00 +17°C° 0 mm 10 mps 732 mmHg 24%
    16:00 +16°C° 0 mm 9 mps 732 mmHg 25%
    17:00 +13°C° 0 mm 8 mps 733 mmHg 30%
    18:00 +12°C° 0 mm 8 mps 734 mmHg 34%
    19:00 +11°C° 0 mm 7 mps 735 mmHg 39%
    20:00 +10°C° 0 mm 7 mps 735 mmHg 41%
    21:00 +10°C° 0 mm 6 mps 736 mmHg 44%
    22:00 +9°C° 0 mm 6 mps 737 mmHg 47%
    23:00 +9°C° 0 mm 5 mps 737 mmHg 48%

    27 May, Sunday

    Time Temperature Precipitation Wind Pressure Humidity
    00:00 +8°C° 0 mm 5 mps 737 mmHg 50%
    01:00 +8°C° 0 mm 4 mps 737 mmHg 52%
    02:00 +8°C° 0 mm 3 mps 737 mmHg 53%
    03:00 +8°C° 0 mm 2 mps 737 mmHg 55%
    04:00 +8°C° 0 mm 1 mps 737 mmHg 57%
    05:00 +7°C° 0 mm 2 mps 737 mmHg 57%
    06:00 +7°C° 0 mm 2 mps 738 mmHg 57%
    07:00 +7°C° 0 mm 2 mps 738 mmHg 57%
    08:00 +9°C° 0 mm 3 mps 738 mmHg 51%
    09:00 +10°C° 0 mm 4 mps 738 mmHg 46%
    10:00 +11°C° 0 mm 4 mps 738 mmHg 41%
    11:00 +12°C° 0 mm 5 mps 737 mmHg 37%
    12:00 +13°C° 0 mm 5 mps 736 mmHg 33%
    13:00 +14°C° 0 mm 6 mps 735 mmHg 29%
    14:00 +14°C° 0 mm 5 mps 734 mmHg 29%
    15:00 +14°C° 0 mm 5 mps 734 mmHg 30%
    16:00 +14°C° 0 mm 4 mps 733 mmHg 30%
    17:00 +14°C° 0 mm 4 mps 733 mmHg 32%
    18:00 +13°C° 0 mm 5 mps 733 mmHg 33%
    19:00 +13°C° 0 mm 5 mps 733 mmHg 34%
    20:00 +13°C° 0 mm 5 mps 733 mmHg 36%
    21:00 +13°C° 0 mm 5 mps 732 mmHg 37%
    22:00 +11°C° 0 mm 6 mps 731 mmHg 39%
    23:00 +11°C° 0 mm 6 mps 730 mmHg 45%

    28 May, Monday

    Time Temperature Precipitation Wind Pressure Humidity
    00:00 +11°C° 0 mm 6 mps 730 mmHg 50%
    01:00 +11°C° 0 mm 6 mps 729 mmHg 56%
    02:00 +11°C° 0 mm 6 mps 728 mmHg 63%
    03:00 +11°C° 0 mm 7 mps 727 mmHg 71%
    04:00 +10°C° 0 mm 7 mps 726 mmHg 78%
    05:00 +11°C° 0 mm 6 mps 725 mmHg 80%
    06:00 +11°C° 0 mm 6 mps 724 mmHg 82%
    07:00 +11°C° 0 mm 6 mps 724 mmHg 84%
    08:00 +13°C° 0 mm 6 mps 723 mmHg 74%
    09:00 +15°C° 0 mm 6 mps 722 mmHg 63%
    10:00 +16°C° 0 mm 6 mps 722 mmHg 53%
    11:00 +17°C° 0 mm 6 mps 721 mmHg 46%
    12:00 +19°C° 0 mm 6 mps 721 mmHg 39%
    13:00 +20°C° 0 mm 6 mps 720 mmHg 32%
    14:00 +18°C° 0 mm 8 mps 720 mmHg 33%
    15:00 +18°C° 0 mm 10 mps 721 mmHg 34%
    16:00 +17°C° 0 mm 12 mps 721 mmHg 36%
    17:00 +15°C° 0 mm 13 mps 722 mmHg 36%
    18:00 +15°C° 0 mm 14 mps 722 mmHg 36%
    19:00 +14°C° 0 mm 15 mps 723 mmHg 37%
    20:00 +14°C° 0 mm 15 mps 723 mmHg 36%
    21:00 +14°C° 0 mm 15 mps 723 mmHg 36%
    22:00 +13°C° 0 mm 15 mps 724 mmHg 35%
    23:00 +13°C° 0 mm 14 mps 724 mmHg 37%
    Show more